Content
SEND FEEDBACK

Daily
Averages
Monthly
Summary
Turkey

TURKMENLI, TURKEY


Home > Middle East > Turkey
Elevation: 230 feet     Latitude: 39 48N     Longitude: 026 30E

WEATHER
 
SELECT A DAY
Number of Records: 30,898;   Date Range: 6/19/04 - 7/26/14
 
SHARE

PRINT THIS DATA

[ ← Previous Day ]
WEATHER ALMANAC - FEBRUARY 13, 2013
[ Next Day → ]
[ °C ]   °F
Weather ElementAverageHighLow
Temperature46.2 °F57.2 °F (2:50 pm)39.2 °F (2:50 am)
Dewpoint41.5 °F48.2 °F (9:50 pm)35 °F (8:00 am)
Humidity83.1 %100 % (10:50 pm)58 % (2:00 pm)
Barometer30.03 in30.10 in (2:00 am)29.95 in (4:50 pm)
Wind Speed5.9 mph16.1 mph (4:50 pm)
Wind Gust28.8 mph (4:50 pm)
Weather ElementAverage
Visibility6.8 mi
Wind DirectionESE (97.8 °)

Weather ElementTotal
Precipitation---
Heating Degree Days16.8 (Base 65)
Averaged from 23 records on February 13, 2013
WEATHER CONDITIONS BREAKOUT
WIND DIRECTION BREAKOUT
WEATHER BY HOUR - FEBRUARY 13, 2013
[ °C ]   °F
Local TimeTemperatureDewpointHumidityBarometerVisibilityWind DirectionWind SpeedGust SpeedPrecipitationEventsConditions
1:50 AM41.0 °F37.4 °F87 %30.06 inENE (70°)3.5 mphClear
2:00 AM42.0 °F37.0 °F75 %30.10 in12.0 miENE (60°)3.5 mph
2:50 AM39.2 °F37.4 °F93 %30.06 inEast (90°)2.3 mphClear
3:50 AM39.2 °F37.4 °F93 %30.06 inEast (80°)3.5 mphClear
4:50 AM39.2 °F37.4 °F93 %30.06 inEast (100°)2.3 mphClear
5:50 AM39.2 °F37.4 °F93 %30.04 inENE (60°)3.5 mphClear
6:50 AM39.2 °F35.6 °F87 %30.04 inENE (60°)3.5 mphClear
7:50 AM39.2 °F35.6 °F87 %30.04 inEast (90°)6.9 mphClear
8:00 AM41.0 °F35.0 °F73 %30.06 inENE (60°)3.5 mph
8:50 AM39.2 °F37.4 °F93 %30.04 inEast (80°)6.9 mphClear
9:50 AM42.8 °F41.0 °F93 %30.06 in6.2 miENE (70°)6.9 mphMostly Cloudy
10:50 AM46.4 °F42.8 °F87 %30.04 in6.2 miEast (80°)6.9 mphMostly Cloudy
11:50 AM50.0 °F44.6 °F82 %30.04 in6.2 miNNE (30°)5.8 mphMostly Cloudy
12:50 PM53.6 °F44.6 °F72 %30.01 in6.2 miVariable3.5 mphMostly Cloudy
1:50 PM53.6 °F46.4 °F77 %30.01 in6.2 miNW (320°)5.8 mphMostly Cloudy
2:00 PM53.0 °F42.0 °F58 %30.00 in12.0 miNorth (10°)3.5 mphPartly Cloudy
2:50 PM57.2 °F46.4 °F67 %29.98 in6.2 miSSE (150°)5.8 mphMostly Cloudy
3:50 PM55.4 °F44.6 °F67 %29.98 in6.2 miSE (140°)11.5 mphMostly Cloudy
4:50 PM55.4 °F44.6 °F67 %29.95 in6.2 miSSE (150°)16.1 mph28.8 mphMostly Cloudy
8:00 PM51.0 °F45.0 °F74 %30.03 in5.0 miWNW (300°)13.8 mphRainLight Rain Showers
9:50 PM50.0 °F48.2 °F94 %30.04 in5.6 miEast (80°)4.6 mphRainLight Rain Showers
10:50 PM48.2 °F48.2 °F100 %30.01 in5.6 miEast (80°)6.9 mphRainLight Rain Showers
11:50 PM48.2 °F48.2 °F100 %30.01 in5.6 miEast (90°)5.8 mphRainLight Rain Showers
Hourly data recorded from LTBH, located miles away from Turkmenli, Turkey







STORIES FROM OUR PARTNERS